Precipitable_Water
0.52 0.51 0.51 0.49 0.49 0.49 0.48 0.47 0.47 0.47 0.46 0.45 0.44 0.44 0.44 0.43 0.44 0.44 0.45 0.46 0.42 0.42 0.44 0.47 0.49 0.48 0.46 0.47 0.49 0.49 0.47 0.41 0.35 0.32 0.32 0.35 0.41 0.47 0.47 0.50 0.52 0.56 0.57 0.46 0.43 0.39 0.35 0.36 0.36 0.40 0.38 0.38 0.36 0.36 0.38 0.36 0.37 0.35 0.26 0.24 0.22 0.24 0.22 0.27 0.25 0.27 0.29 0.26 0.29 0.30 0.31 0.30 0.28 0.32 0.34 0.36 0.34 0.34 0.34 0.34 0.37 0.39 0.38 0.38 0.39 0.39 0.40 0.43
0.49 0.49 0.48 0.48 0.46 0.46 0.46 0.46 0.45 0.45 0.44 0.43 0.42 0.41 0.40 0.40 0.40 0.40 0.40 0.43 0.44 0.42 0.42 0.43 0.47 0.47 0.47 0.46 0.48 0.49 0.43 0.39 0.33 0.32 0.30 0.41 0.44 0.46 0.48 0.48 0.51 0.54 0.52 0.41 0.38 0.36 0.32 0.32 0.34 0.37 0.34 0.31 0.38 0.32 0.38 0.31 0.36 0.27 0.24 0.23 0.20 0.23 0.26 0.27 0.27 0.29 0.27 0.27 0.29 0.30 0.32 0.31 0.30 0.32 0.34 0.30 0.31 0.32 0.32 0.33 0.35 0.34 0.36 0.38 0.39 0.39 0.40 0.41
0.48 0.48 0.47 0.47 0.46 0.45 0.45 0.45 0.45 0.44 0.44 0.42 0.41 0.40 0.39 0.38 0.38 0.37 0.37 0.37 0.40 0.42 0.42 0.41 0.43 0.46 0.47 0.48 0.46 0.47 0.40 0.34 0.30 0.28 0.32 0.43 0.43 0.45 0.49 0.50 0.49 0.52 0.44 0.37 0.39 0.38 0.34 0.34 0.34 0.33 0.31 0.27 0.31 0.27 0.31 0.28 0.32 0.28 0.23 0.20 0.22 0.26 0.27 0.27 0.28 0.27 0.29 0.29 0.28 0.28 0.30 0.30 0.32 0.32 0.34 0.30 0.30 0.32 0.30 0.30 0.32 0.32 0.33 0.35 0.37 0.38 0.39 0.40
0.49 0.48 0.48 0.47 0.46 0.46 0.45 0.45 0.45 0.44 0.44 0.43 0.41 0.40 0.38 0.37 0.36 0.35 0.35 0.35 0.35 0.38 0.42 0.40 0.42 0.43 0.47 0.47 0.50 0.47 0.35 0.30 0.24 0.29 0.36 0.43 0.43 0.46 0.49 0.49 0.47 0.50 0.45 0.41 0.41 0.39 0.39 0.36 0.34 0.31 0.27 0.26 0.27 0.29 0.25 0.28 0.24 0.28 0.22 0.21 0.22 0.26 0.24 0.26 0.27 0.27 0.28 0.28 0.27 0.28 0.30 0.29 0.32 0.32 0.32 0.30 0.28 0.29 0.30 0.32 0.31 0.31 0.32 0.34 0.36 0.38 0.38 0.39
0.49 0.49 0.49 0.48 0.47 0.47 0.46 0.45 0.44 0.44 0.43 0.42 0.41 0.40 0.38 0.36 0.35 0.34 0.34 0.34 0.33 0.34 0.39 0.41 0.41 0.44 0.46 0.50 0.44 0.46 0.30 0.20 0.24 0.33 0.38 0.40 0.46 0.46 0.48 0.46 0.47 0.47 0.44 0.39 0.39 0.38 0.37 0.32 0.30 0.28 0.26 0.22 0.25 0.25 0.24 0.26 0.29 0.25 0.21 0.23 0.24 0.25 0.23 0.26 0.27 0.28 0.27 0.28 0.27 0.27 0.25 0.26 0.31 0.30 0.29 0.28 0.25 0.26 0.29 0.31 0.33 0.33 0.34 0.34 0.34 0.36 0.37 0.37
0.50 0.50 0.50 0.49 0.48 0.48 0.47 0.46 0.44 0.44 0.43 0.42 0.41 0.40 0.39 0.37 0.36 0.34 0.32 0.32 0.32 0.32 0.35 0.39 0.41 0.41 0.45 0.46 0.43 0.36 0.26 0.11 0.29 0.31 0.41 0.42 0.44 0.46 0.45 0.44 0.46 0.45 0.40 0.35 0.35 0.35 0.34 0.31 0.27 0.23 0.23 0.22 0.22 0.20 0.23 0.25 0.28 0.19 0.22 0.22 0.23 0.24 0.22 0.26 0.27 0.27 0.28 0.27 0.26 0.25 0.27 0.29 0.27 0.26 0.28 0.27 0.26 0.28 0.32 0.32 0.33 0.33 0.34 0.34 0.35 0.35 0.34 0.35
0.51 0.51 0.51 0.50 0.50 0.49 0.49 0.48 0.45 0.44 0.43 0.42 0.41 0.40 0.38 0.38 0.37 0.35 0.33 0.31 0.31 0.32 0.33 0.37 0.39 0.42 0.42 0.44 0.36 0.32 0.23 0.22 0.31 0.38 0.40 0.41 0.42 0.44 0.44 0.42 0.42 0.38 0.37 0.32 0.32 0.31 0.32 0.29 0.26 0.23 0.22 0.22 0.22 0.21 0.23 0.23 0.25 0.22 0.18 0.21 0.22 0.24 0.22 0.25 0.25 0.27 0.27 0.26 0.26 0.28 0.29 0.26 0.27 0.23 0.28 0.25 0.29 0.30 0.31 0.33 0.32 0.33 0.34 0.34 0.32 0.33 0.32 0.33
0.52 0.52 0.52 0.52 0.51 0.51 0.50 0.49 0.47 0.46 0.44 0.42 0.41 0.39 0.38 0.38 0.37 0.36 0.34 0.32 0.31 0.31 0.34 0.35 0.38 0.39 0.42 0.34 0.27 0.22 0.23 0.20 0.31 0.42 0.43 0.42 0.39 0.43 0.41 0.39 0.38 0.36 0.34 0.30 0.30 0.29 0.30 0.27 0.24 0.25 0.22 0.18 0.20 0.20 0.23 0.21 0.22 0.19 0.18 0.21 0.22 0.23 0.23 0.25 0.25 0.25 0.25 0.25 0.27 0.27 0.25 0.25 0.26 0.25 0.26 0.23 0.28 0.31 0.31 0.32 0.31 0.32 0.32 0.32 0.32 0.32 0.32 0.32
0.53 0.52 0.52 0.52 0.52 0.52 0.52 0.51 0.50 0.48 0.46 0.44 0.43 0.41 0.39 0.38 0.37 0.36 0.36 0.34 0.33 0.32 0.33 0.35 0.37 0.37 0.41 0.34 0.23 0.19 0.18 0.30 0.37 0.42 0.43 0.40 0.38 0.40 0.38 0.32 0.35 0.32 0.31 0.31 0.31 0.30 0.29 0.27 0.28 0.27 0.20 0.20 0.24 0.21 0.22 0.18 0.16 0.20 0.20 0.21 0.21 0.21 0.23 0.24 0.23 0.23 0.24 0.25 0.26 0.24 0.22 0.24 0.25 0.27 0.22 0.23 0.28 0.31 0.32 0.31 0.31 0.30 0.30 0.31 0.31 0.31 0.31 0.32
0.52 0.52 0.52 0.52 0.52 0.53 0.52 0.52 0.51 0.50 0.49 0.48 0.46 0.43 0.41 0.39 0.38 0.38 0.35 0.34 0.34 0.34 0.34 0.37 0.36 0.39 0.32 0.26 0.23 0.15 0.22 0.37 0.40 0.41 0.41 0.40 0.37 0.35 0.35 0.35 0.32 0.31 0.29 0.30 0.31 0.30 0.28 0.29 0.29 0.31 0.28 0.24 0.26 0.21 0.22 0.20 0.17 0.22 0.21 0.21 0.21 0.21 0.21 0.22 0.21 0.22 0.23 0.24 0.25 0.22 0.22 0.23 0.24 0.22 0.15 0.21 0.25 0.27 0.28 0.28 0.29 0.29 0.29 0.30 0.30 0.31 0.31 0.31
0.53 0.52 0.52 0.52 0.52 0.52 0.52 0.52 0.52 0.52 0.51 0.50 0.48 0.46 0.43 0.41 0.41 0.40 0.38 0.35 0.35 0.36 0.37 0.37 0.40 0.35 0.25 0.26 0.18 0.13 0.33 0.35 0.38 0.39 0.40 0.40 0.35 0.31 0.31 0.33 0.34 0.30 0.30 0.30 0.29 0.31 0.31 0.31 0.34 0.32 0.29 0.23 0.25 0.22 0.22 0.21 0.24 0.22 0.22 0.20 0.20 0.21 0.21 0.21 0.21 0.21 0.22 0.21 0.24 0.23 0.21 0.24 0.23 0.21 0.15 0.19 0.23 0.24 0.24 0.25 0.26 0.27 0.27 0.28 0.29 0.30 0.31 0.31
0.57 0.55 0.54 0.53 0.52 0.50 0.51 0.51 0.51 0.51 0.52 0.51 0.49 0.48 0.44 0.42 0.43 0.43 0.41 0.38 0.37 0.38 0.37 0.36 0.36 0.36 0.27 0.22 0.18 0.18 0.36 0.35 0.40 0.40 0.38 0.39 0.34 0.35 0.35 0.35 0.33 0.32 0.30 0.27 0.29 0.32 0.33 0.33 0.33 0.30 0.22 0.30 0.21 0.23 0.21 0.26 0.23 0.22 0.21 0.16 0.17 0.18 0.17 0.19 0.18 0.19 0.21 0.20 0.23 0.24 0.20 0.18 0.19 0.16 0.16 0.21 0.23 0.22 0.21 0.22 0.23 0.25 0.26 0.26 0.26 0.27 0.29 0.30
0.60 0.58 0.57 0.55 0.54 0.52 0.50 0.50 0.51 0.50 0.51 0.51 0.50 0.48 0.46 0.43 0.43 0.44 0.42 0.40 0.42 0.43 0.39 0.45 0.37 0.34 0.26 0.16 0.20 0.32 0.37 0.39 0.40 0.39 0.37 0.40 0.38 0.39 0.37 0.36 0.34 0.33 0.32 0.29 0.29 0.33 0.35 0.34 0.33 0.27 0.31 0.27 0.24 0.19 0.25 0.25 0.23 0.23 0.21 0.18 0.16 0.16 0.14 0.17 0.20 0.20 0.19 0.20 0.23 0.23 0.11 0.12 0.16 0.16 0.18 0.21 0.20 0.21 0.20 0.20 0.22 0.23 0.23 0.24 0.25 0.25 0.26 0.27
0.63 0.61 0.60 0.59 0.56 0.55 0.53 0.51 0.50 0.51 0.51 0.51 0.49 0.48 0.44 0.42 0.43 0.42 0.41 0.41 0.45 0.47 0.48 0.42 0.40 0.32 0.24 0.16 0.25 0.33 0.39 0.41 0.41 0.37 0.35 0.39 0.34 0.34 0.37 0.37 0.37 0.36 0.37 0.33 0.34 0.36 0.34 0.35 0.34 0.31 0.32 0.26 0.23 0.30 0.24 0.22 0.23 0.18 0.19 0.19 0.15 0.13 0.13 0.18 0.17 0.18 0.16 0.21 0.22 0.22 0.12 0.11 0.16 0.18 0.20 0.21 0.21 0.19 0.18 0.19 0.20 0.20 0.21 0.22 0.23 0.24 0.24 0.26
0.67 0.64 0.63 0.62 0.61 0.58 0.56 0.54 0.52 0.52 0.52 0.51 0.50 0.47 0.44 0.41 0.43 0.41 0.43 0.43 0.46 0.49 0.45 0.47 0.39 0.29 0.19 0.19 0.32 0.39 0.42 0.41 0.34 0.35 0.39 0.34 0.31 0.30 0.31 0.34 0.33 0.35 0.36 0.36 0.34 0.36 0.36 0.35 0.32 0.27 0.25 0.30 0.29 0.24 0.20 0.20 0.20 0.20 0.15 0.14 0.16 0.13 0.14 0.16 0.19 0.18 0.15 0.19 0.22 0.19 0.13 0.12 0.14 0.17 0.20 0.21 0.20 0.19 0.17 0.17 0.18 0.19 0.19 0.20 0.22 0.22 0.23 0.24
0.71 0.68 0.67 0.65 0.63 0.62 0.59 0.55 0.54 0.54 0.53 0.53 0.50 0.47 0.44 0.43 0.43 0.42 0.47 0.42 0.44 0.48 0.48 0.37 0.36 0.30 0.21 0.17 0.25 0.45 0.36 0.27 0.29 0.39 0.41 0.37 0.34 0.29 0.34 0.32 0.36 0.35 0.36 0.34 0.38 0.37 0.36 0.34 0.27 0.27 0.26 0.27 0.23 0.21 0.19 0.18 0.18 0.18 0.15 0.13 0.13 0.14 0.13 0.13 0.17 0.19 0.20 0.19 0.20 0.18 0.12 0.14 0.13 0.16 0.18 0.20 0.19 0.18 0.17 0.17 0.17 0.17 0.18 0.19 0.20 0.22 0.22 0.23
0.74 0.72 0.69 0.67 0.65 0.64 0.62 0.59 0.56 0.55 0.54 0.53 0.52 0.47 0.45 0.44 0.44 0.46 0.47 0.49 0.45 0.46 0.44 0.31 0.36 0.35 0.19 0.30 0.43 0.28 0.25 0.30 0.41 0.39 0.39 0.40 0.35 0.33 0.32 0.31 0.29 0.31 0.35 0.35 0.36 0.35 0.34 0.29 0.30 0.28 0.28 0.23 0.23 0.22 0.16 0.14 0.14 0.15 0.17 0.14 0.15 0.12 0.13 0.11 0.16 0.18 0.20 0.19 0.16 0.18 0.16 0.14 0.14 0.15 0.17 0.18 0.18 0.18 0.17 0.16 0.17 0.17 0.18 0.20 0.21 0.22 0.22 0.22
0.73 0.72 0.71 0.69 0.66 0.65 0.63 0.61 0.61 0.58 0.57 0.56 0.52 0.48 0.43 0.45 0.49 0.44 0.42 0.45 0.44 0.39 0.40 0.42 0.37 0.27 0.22 0.31 0.21 0.22 0.34 0.33 0.38 0.40 0.40 0.41 0.39 0.35 0.31 0.27 0.30 0.30 0.31 0.28 0.34 0.28 0.31 0.26 0.28 0.21 0.22 0.22 0.21 0.19 0.14 0.10 0.12 0.13 0.14 0.14 0.13 0.15 0.14 0.13 0.13 0.16 0.18 0.19 0.16 0.17 0.16 0.15 0.15 0.15 0.16 0.17 0.18 0.18 0.17 0.17 0.17 0.17 0.18 0.20 0.21 0.21 0.21 0.21
0.71 0.70 0.70 0.70 0.68 0.67 0.63 0.62 0.62 0.61 0.59 0.57 0.53 0.48 0.47 0.47 0.43 0.38 0.33 0.32 0.28 0.24 0.19 0.23 0.23 0.16 0.15 0.22 0.30 0.32 0.36 0.40 0.43 0.39 0.34 0.36 0.36 0.34 0.32 0.31 0.30 0.25 0.23 0.22 0.24 0.26 0.29 0.26 0.26 0.21 0.17 0.18 0.18 0.18 0.15 0.15 0.16 0.15 0.16 0.15 0.15 0.13 0.13 0.13 0.15 0.18 0.18 0.17 0.16 0.15 0.14 0.14 0.15 0.15 0.15 0.16 0.17 0.18 0.17 0.18 0.18 0.18 0.19 0.20 0.20 0.21 0.21 0.21
0.76 0.74 0.73 0.72 0.69 0.67 0.63 0.62 0.61 0.60 0.61 0.55 0.47 0.42 0.38 0.31 0.29 0.26 0.31 0.30 0.24 0.22 0.22 0.22 0.25 0.24 0.24 0.25 0.26 0.35 0.42 0.41 0.29 0.33 0.36 0.38 0.34 0.30 0.28 0.28 0.26 0.27 0.22 0.18 0.24 0.25 0.28 0.19 0.17 0.15 0.16 0.19 0.20 0.20 0.19 0.20 0.19 0.19 0.18 0.17 0.16 0.16 0.15 0.16 0.17 0.19 0.20 0.17 0.15 0.15 0.15 0.15 0.14 0.15 0.15 0.16 0.17 0.17 0.17 0.17 0.17 0.18 0.19 0.20 0.21 0.21 0.21 0.21
0.77 0.78 0.74 0.73 0.72 0.69 0.65 0.64 0.63 0.59 0.56 0.53 0.46 0.36 0.27 0.27 0.24 0.22 0.26 0.27 0.28 0.28 0.25 0.25 0.24 0.22 0.21 0.27 0.31 0.30 0.25 0.27 0.31 0.30 0.34 0.42 0.35 0.29 0.25 0.26 0.23 0.19 0.21 0.23 0.23 0.28 0.26 0.18 0.17 0.17 0.20 0.21 0.21 0.21 0.21 0.20 0.20 0.18 0.18 0.17 0.16 0.17 0.14 0.16 0.17 0.19 0.21 0.17 0.15 0.16 0.15 0.15 0.15 0.16 0.16 0.16 0.17 0.16 0.17 0.17 0.18 0.19 0.21 0.22 0.22 0.22 0.22 0.22
0.72 0.72 0.71 0.75 0.77 0.74 0.68 0.65 0.65 0.62 0.56 0.49 0.40 0.31 0.30 0.31 0.35 0.37 0.31 0.22 0.28 0.30 0.29 0.28 0.29 0.24 0.27 0.26 0.30 0.32 0.29 0.22 0.23 0.28 0.36 0.36 0.30 0.23 0.24 0.23 0.21 0.18 0.23 0.23 0.24 0.21 0.19 0.16 0.17 0.21 0.23 0.24 0.23 0.22 0.22 0.20 0.19 0.20 0.19 0.18 0.17 0.15 0.17 0.18 0.19 0.20 0.21 0.19 0.15 0.17 0.15 0.14 0.15 0.16 0.16 0.16 0.16 0.18 0.18 0.20 0.20 0.22 0.22 0.23 0.23 0.23 0.23 0.22
0.69 0.68 0.70 0.76 0.77 0.76 0.71 0.68 0.66 0.62 0.54 0.45 0.37 0.33 0.33 0.42 0.51 0.49 0.39 0.32 0.26 0.31 0.29 0.28 0.25 0.24 0.25 0.30 0.30 0.32 0.21 0.19 0.17 0.25 0.29 0.33 0.27 0.25 0.24 0.21 0.20 0.21 0.22 0.22 0.18 0.18 0.16 0.17 0.21 0.24 0.24 0.22 0.21 0.22 0.21 0.21 0.21 0.19 0.19 0.17 0.15 0.17 0.16 0.14 0.18 0.21 0.21 0.18 0.15 0.16 0.15 0.14 0.15 0.15 0.15 0.16 0.17 0.17 0.20 0.21 0.23 0.25 0.24 0.24 0.25 0.24 0.23 0.23
0.72 0.67 0.67 0.70 0.76 0.75 0.73 0.69 0.67 0.59 0.54 0.50 0.45 0.41 0.51 0.56 0.55 0.51 0.35 0.24 0.22 0.25 0.28 0.29 0.29 0.28 0.26 0.24 0.33 0.29 0.22 0.21 0.22 0.20 0.35 0.30 0.24 0.28 0.25 0.22 0.20 0.21 0.18 0.20 0.20 0.18 0.16 0.20 0.24 0.24 0.24 0.22 0.20 0.20 0.19 0.19 0.17 0.20 0.19 0.18 0.17 0.17 0.18 0.17 0.18 0.20 0.20 0.20 0.20 0.18 0.15 0.13 0.13 0.12 0.13 0.15 0.17 0.17 0.19 0.22 0.24 0.25 0.28 0.28 0.29 0.27 0.26 0.24
0.75 0.70 0.70 0.71 0.73 0.77 0.68 0.68 0.57 0.56 0.61 0.55 0.49 0.57 0.58 0.60 0.60 0.59 0.37 0.28 0.26 0.24 0.35 0.32 0.33 0.31 0.32 0.43 0.38 0.27 0.28 0.27 0.25 0.29 0.33 0.31 0.25 0.25 0.22 0.26 0.23 0.18 0.19 0.22 0.22 0.21 0.19 0.24 0.26 0.23 0.22 0.22 0.21 0.18 0.19 0.19 0.17 0.18 0.19 0.19 0.18 0.19 0.18 0.19 0.20 0.18 0.16 0.15 0.18 0.17 0.10 0.08 0.12 0.12 0.13 0.15 0.16 0.16 0.20 0.23 0.23 0.25 0.26 0.28 0.27 0.26 0.28 0.28
0.82 0.74 0.68 0.72 0.76 0.69 0.65 0.50 0.50 0.60 0.54 0.48 0.55 0.64 0.58 0.62 0.67 0.57 0.36 0.24 0.19 0.23 0.26 0.19 0.32 0.25 0.41 0.30 0.35 0.30 0.30 0.22 0.30 0.31 0.34 0.33 0.35 0.26 0.26 0.22 0.23 0.18 0.20 0.22 0.22 0.23 0.22 0.25 0.25 0.23 0.22 0.22 0.21 0.19 0.20 0.21 0.18 0.17 0.17 0.21 0.20 0.20 0.20 0.19 0.18 0.17 0.13 0.12 0.18 0.20 0.12 0.08 0.12 0.11 0.13 0.15 0.16 0.17 0.21 0.24 0.25 0.26 0.26 0.27 0.27 0.28 0.28 0.28
0.95 0.89 0.82 0.74 0.69 0.67 0.45 0.37 0.61 0.57 0.43 0.47 0.62 0.66 0.58 0.57 0.71 0.57 0.24 0.17 0.15 0.21 0.19 0.27 0.28 0.33 0.42 0.38 0.35 0.33 0.17 0.20 0.32 0.35 0.33 0.37 0.29 0.35 0.21 0.20 0.23 0.24 0.26 0.27 0.23 0.20 0.25 0.24 0.24 0.25 0.23 0.21 0.20 0.18 0.21 0.21 0.19 0.17 0.22 0.22 0.22 0.20 0.19 0.19 0.18 0.18 0.16 0.20 0.21 0.20 0.18 0.11 0.11 0.13 0.15 0.16 0.16 0.19 0.22 0.24 0.25 0.26 0.25 0.25 0.26 0.27 0.27 0.29
0.95 0.96 0.94 0.89 0.83 0.75 0.56 0.57 0.50 0.45 0.46 0.60 0.69 0.64 0.64 0.58 0.59 0.48 0.21 0.14 0.12 0.23 0.20 0.28 0.32 0.49 0.39 0.39 0.40 0.27 0.26 0.31 0.23 0.30 0.35 0.37 0.35 0.29 0.25 0.21 0.21 0.21 0.24 0.24 0.16 0.23 0.25 0.23 0.23 0.23 0.23 0.21 0.19 0.20 0.22 0.23 0.20 0.20 0.23 0.24 0.22 0.22 0.21 0.21 0.20 0.19 0.19 0.18 0.15 0.17 0.19 0.14 0.12 0.15 0.18 0.19 0.18 0.20 0.22 0.24 0.25 0.25 0.25 0.25 0.25 0.26 0.27 0.30
1.02 0.99 0.97 0.93 0.89 0.88 0.84 0.72 0.62 0.49 0.62 0.68 0.72 0.65 0.61 0.65 0.49 0.29 0.22 0.16 0.22 0.19 0.40 0.25 0.49 0.39 0.37 0.40 0.32 0.32 0.29 0.33 0.22 0.30 0.37 0.39 0.38 0.32 0.24 0.25 0.26 0.26 0.27 0.26 0.20 0.23 0.27 0.27 0.27 0.27 0.24 0.20 0.22 0.24 0.25 0.25 0.21 0.24 0.26 0.27 0.26 0.25 0.24 0.23 0.22 0.21 0.20 0.17 0.13 0.16 0.18 0.13 0.11 0.15 0.17 0.20 0.21 0.22 0.23 0.24 0.25 0.25 0.23 0.24 0.24 0.24 0.27 0.29
1.08 1.06 1.05 0.98 0.92 0.83 0.83 0.84 0.71 0.76 0.73 0.76 0.73 0.66 0.63 0.49 0.35 0.24 0.21 0.16 0.26 0.21 0.29 0.35 0.32 0.28 0.36 0.32 0.33 0.34 0.27 0.29 0.30 0.32 0.34 0.32 0.34 0.37 0.33 0.37 0.30 0.28 0.27 0.30 0.27 0.28 0.30 0.33 0.33 0.28 0.23 0.24 0.25 0.26 0.28 0.28 0.28 0.30 0.28 0.26 0.26 0.25 0.24 0.25 0.24 0.22 0.19 0.14 0.14 0.17 0.19 0.17 0.12 0.15 0.17 0.18 0.21 0.22 0.24 0.25 0.25 0.24 0.23 0.23 0.24 0.24 0.26 0.27
1.15 1.15 1.12 1.07 0.89 0.89 0.81 0.66 0.74 0.78 0.77 0.75 0.75 0.70 0.59 0.46 0.30 0.25 0.18 0.22 0.23 0.26 0.35 0.35 0.30 0.37 0.30 0.27 0.26 0.34 0.35 0.34 0.30 0.29 0.27 0.32 0.30 0.33 0.32 0.29 0.35 0.29 0.28 0.27 0.26 0.28 0.29 0.29 0.28 0.28 0.30 0.28 0.27 0.24 0.28 0.29 0.29 0.28 0.25 0.24 0.24 0.23 0.24 0.21 0.21 0.22 0.15 0.13 0.16 0.18 0.19 0.21 0.14 0.15 0.19 0.22 0.24 0.24 0.24 0.23 0.23 0.22 0.22 0.22 0.23 0.24 0.26 0.28
1.18 1.17 1.17 1.10 1.08 1.06 0.77 0.62 0.77 0.82 0.75 0.74 0.68 0.54 0.46 0.34 0.36 0.24 0.21 0.24 0.23 0.27 0.27 0.29 0.34 0.34 0.33 0.35 0.31 0.29 0.29 0.33 0.35 0.30 0.25 0.25 0.25 0.25 0.25 0.22 0.25 0.20 0.19 0.20 0.19 0.24 0.22 0.22 0.26 0.28 0.30 0.27 0.24 0.24 0.26 0.29 0.29 0.28 0.26 0.24 0.20 0.17 0.17 0.15 0.18 0.14 0.15 0.13 0.17 0.20 0.21 0.19 0.16 0.17 0.22 0.23 0.23 0.24 0.25 0.24 0.22 0.22 0.21 0.22 0.23 0.24 0.26 0.28
1.30 1.24 1.22 1.15 1.12 1.03 1.01 0.98 0.83 0.75 0.73 0.68 0.58 0.51 0.38 0.33 0.25 0.28 0.29 0.29 0.28 0.32 0.30 0.37 0.33 0.34 0.34 0.32 0.29 0.30 0.33 0.26 0.32 0.31 0.30 0.28 0.25 0.25 0.28 0.26 0.26 0.22 0.16 0.20 0.19 0.18 0.19 0.23 0.23 0.25 0.26 0.28 0.27 0.22 0.24 0.24 0.26 0.25 0.22 0.21 0.19 0.15 0.14 0.12 0.13 0.15 0.14 0.17 0.20 0.20 0.23 0.17 0.17 0.20 0.23 0.23 0.24 0.25 0.25 0.24 0.24 0.22 0.21 0.22 0.24 0.26 0.27 0.28
1.35 1.32 1.22 1.23 1.19 1.14 1.14 1.15 1.03 0.87 0.66 0.56 0.43 0.36 0.33 0.26 0.23 0.28 0.29 0.29 0.30 0.37 0.37 0.32 0.33 0.34 0.31 0.25 0.26 0.28 0.24 0.30 0.29 0.29 0.30 0.27 0.26 0.22 0.24 0.26 0.27 0.23 0.22 0.20 0.17 0.17 0.14 0.14 0.19 0.23 0.20 0.27 0.28 0.28 0.27 0.24 0.24 0.24 0.26 0.23 0.18 0.16 0.13 0.11 0.12 0.12 0.14 0.17 0.19 0.22 0.18 0.14 0.15 0.17 0.22 0.23 0.24 0.24 0.24 0.24 0.23 0.23 0.24 0.25 0.27 0.28 0.28 0.30
1.39 1.32 1.26 1.24 1.20 1.21 1.22 1.21 1.13 1.03 0.84 0.56 0.38 0.28 0.22 0.20 0.23 0.24 0.25 0.27 0.29 0.32 0.30 0.34 0.27 0.25 0.24 0.26 0.28 0.29 0.27 0.24 0.30 0.30 0.29 0.27 0.24 0.24 0.22 0.23 0.27 0.28 0.27 0.22 0.24 0.24 0.22 0.21 0.25 0.30 0.29 0.31 0.28 0.31 0.31 0.27 0.25 0.26 0.26 0.26 0.20 0.16 0.18 0.14 0.16 0.17 0.18 0.18 0.17 0.19 0.17 0.18 0.18 0.22 0.23 0.23 0.23 0.22 0.23 0.23 0.22 0.22 0.24 0.26 0.27 0.27 0.27 0.29
1.36 1.26 1.28 1.15 1.13 1.18 1.22 1.25 1.18 1.05 0.83 0.60 0.41 0.30 0.24 0.23 0.23 0.27 0.25 0.28 0.28 0.25 0.28 0.29 0.28 0.24 0.24 0.25 0.28 0.27 0.35 0.27 0.30 0.29 0.28 0.28 0.27 0.25 0.27 0.28 0.28 0.31 0.29 0.27 0.29 0.25 0.26 0.22 0.28 0.30 0.31 0.29 0.29 0.30 0.28 0.28 0.17 0.22 0.24 0.19 0.20 0.26 0.22 0.20 0.20 0.22 0.22 0.19 0.14 0.18 0.17 0.17 0.20 0.20 0.21 0.21 0.22 0.22 0.22 0.22 0.22 0.22 0.23 0.25 0.27 0.28 0.28 0.30
1.24 1.24 1.06 1.11 1.14 1.24 1.25 1.24 1.18 1.00 0.82 0.58 0.41 0.31 0.30 0.29 0.29 0.29 0.30 0.27 0.27 0.27 0.26 0.22 0.23 0.22 0.22 0.21 0.23 0.25 0.27 0.30 0.28 0.27 0.23 0.28 0.25 0.28 0.28 0.29 0.33 0.32 0.32 0.28 0.25 0.26 0.20 0.19 0.26 0.26 0.24 0.30 0.31 0.30 0.29 0.28 0.27 0.25 0.20 0.23 0.29 0.30 0.27 0.22 0.18 0.19 0.17 0.15 0.14 0.16 0.14 0.14 0.15 0.13 0.20 0.20 0.20 0.20 0.21 0.21 0.22 0.22 0.23 0.24 0.26 0.27 0.28 0.30
1.22 1.16 1.12 1.10 1.17 1.30 1.30 1.24 1.14 1.00 0.77 0.55 0.46 0.42 0.45 0.37 0.37 0.33 0.33 0.30 0.29 0.28 0.25 0.22 0.22 0.24 0.22 0.22 0.22 0.25 0.29 0.25 0.25 0.27 0.23 0.26 0.21 0.29 0.26 0.26 0.30 0.29 0.28 0.30 0.25 0.25 0.26 0.20 0.22 0.26 0.27 0.28 0.31 0.29 0.27 0.30 0.31 0.25 0.23 0.32 0.21 0.19 0.19 0.23 0.19 0.14 0.14 0.13 0.14 0.14 0.14 0.15 0.14 0.15 0.18 0.18 0.19 0.20 0.20 0.21 0.22 0.22 0.23 0.24 0.26 0.27 0.29 0.31
1.23 1.13 0.91 1.05 1.25 1.30 1.28 1.27 1.09 0.91 0.72 0.53 0.45 0.39 0.41 0.41 0.42 0.38 0.38 0.36 0.35 0.31 0.26 0.25 0.22 0.25 0.24 0.23 0.25 0.28 0.29 0.25 0.28 0.27 0.24 0.26 0.22 0.28 0.26 0.27 0.27 0.30 0.31 0.31 0.29 0.28 0.28 0.21 0.21 0.28 0.27 0.29 0.29 0.27 0.20 0.23 0.29 0.30 0.29 0.26 0.27 0.22 0.19 0.17 0.16 0.16 0.15 0.13 0.14 0.13 0.14 0.12 0.15 0.17 0.18 0.18 0.19 0.20 0.20 0.21 0.22 0.23 0.24 0.25 0.27 0.28 0.29 0.31
1.09 0.94 0.85 1.14 1.26 1.29 1.25 1.15 0.96 0.84 0.68 0.51 0.49 0.47 0.51 0.46 0.46 0.44 0.42 0.40 0.37 0.35 0.33 0.31 0.30 0.26 0.27 0.27 0.27 0.26 0.30 0.28 0.27 0.27 0.26 0.28 0.25 0.33 0.28 0.32 0.28 0.30 0.31 0.32 0.29 0.30 0.26 0.27 0.20 0.25 0.30 0.29 0.21 0.24 0.21 0.22 0.20 0.22 0.22 0.21 0.22 0.21 0.23 0.21 0.20 0.16 0.15 0.14 0.14 0.13 0.12 0.12 0.16 0.19 0.18 0.18 0.19 0.20 0.21 0.22 0.23 0.24 0.25 0.27 0.28 0.29 0.30 0.33
1.12 0.92 0.88 1.14 1.20 1.24 1.15 0.96 0.78 0.68 0.62 0.62 0.60 0.53 0.53 0.50 0.52 0.50 0.48 0.45 0.41 0.40 0.36 0.33 0.32 0.30 0.30 0.29 0.29 0.30 0.28 0.29 0.28 0.26 0.27 0.27 0.27 0.24 0.32 0.32 0.32 0.30 0.34 0.33 0.31 0.31 0.27 0.27 0.22 0.23 0.23 0.22 0.22 0.26 0.24 0.24 0.23 0.21 0.20 0.19 0.19 0.17 0.16 0.15 0.14 0.19 0.19 0.17 0.15 0.15 0.14 0.15 0.17 0.20 0.19 0.19 0.21 0.23 0.24 0.24 0.24 0.25 0.26 0.27 0.29 0.30 0.31 0.32
0.94 0.72 0.80 1.14 1.21 1.17 0.95 0.69 0.68 0.75 0.68 0.60 0.53 0.56 0.56 0.62 0.57 0.54 0.51 0.49 0.45 0.40 0.42 0.38 0.37 0.34 0.33 0.31 0.31 0.31 0.29 0.28 0.28 0.27 0.28 0.26 0.30 0.28 0.30 0.35 0.33 0.33 0.29 0.28 0.28 0.31 0.28 0.27 0.24 0.22 0.23 0.24 0.25 0.27 0.29 0.29 0.28 0.26 0.24 0.21 0.22 0.20 0.19 0.17 0.15 0.17 0.20 0.19 0.20 0.19 0.17 0.14 0.20 0.22 0.22 0.22 0.23 0.24 0.25 0.26 0.26 0.27 0.28 0.28 0.30 0.30 0.33 0.34
0.85 0.77 1.03 1.12 1.16 1.04 0.84 0.66 0.69 0.66 0.62 0.62 0.69 0.67 0.66 0.63 0.60 0.60 0.54 0.52 0.48 0.48 0.45 0.41 0.40 0.38 0.38 0.36 0.35 0.33 0.31 0.28 0.28 0.28 0.30 0.30 0.29 0.31 0.33 0.34 0.35 0.34 0.32 0.30 0.31 0.32 0.34 0.27 0.24 0.24 0.27 0.28 0.28 0.29 0.29 0.30 0.30 0.28 0.28 0.27 0.26 0.22 0.22 0.21 0.20 0.20 0.19 0.19 0.19 0.19 0.18 0.17 0.20 0.24 0.24 0.25 0.25 0.26 0.27 0.27 0.28 0.29 0.29 0.30 0.30 0.32 0.32 0.33
0.85 0.82 0.86 1.06 1.12 1.00 0.76 0.55 0.55 0.58 0.62 0.67 0.67 0.63 0.68 0.66 0.64 0.61 0.58 0.56 0.52 0.50 0.48 0.48 0.47 0.45 0.41 0.41 0.38 0.35 0.36 0.29 0.31 0.30 0.30 0.31 0.30 0.35 0.35 0.35 0.36 0.34 0.31 0.32 0.27 0.34 0.25 0.29 0.24 0.22 0.22 0.22 0.23 0.25 0.25 0.29 0.31 0.28 0.27 0.28 0.28 0.26 0.25 0.25 0.25 0.25 0.20 0.19 0.19 0.19 0.17 0.17 0.20 0.25 0.25 0.25 0.26 0.26 0.27 0.29 0.30 0.29 0.30 0.31 0.33 0.34 0.34 0.35
0.85 0.87 0.86 0.91 1.01 0.91 0.65 0.65 0.61 0.59 0.60 0.60 0.60 0.59 0.61 0.64 0.68 0.67 0.66 0.61 0.60 0.57 0.54 0.50 0.50 0.49 0.46 0.45 0.43 0.42 0.41 0.37 0.34 0.37 0.34 0.33 0.34 0.38 0.37 0.36 0.37 0.34 0.35 0.35 0.31 0.33 0.26 0.26 0.25 0.21 0.20 0.18 0.17 0.17 0.19 0.22 0.26 0.29 0.29 0.28 0.28 0.27 0.26 0.25 0.22 0.23 0.20 0.19 0.20 0.20 0.19 0.20 0.23 0.24 0.23 0.23 0.24 0.25 0.27 0.29 0.31 0.32 0.32 0.33 0.34 0.34 0.35 0.36
0.72 0.57 0.71 0.76 0.82 0.79 0.75 0.76 0.69 0.61 0.58 0.58 0.56 0.59 0.62 0.60 0.66 0.69 0.69 0.66 0.66 0.62 0.59 0.57 0.54 0.51 0.47 0.45 0.42 0.41 0.41 0.42 0.37 0.35 0.37 0.36 0.35 0.37 0.38 0.39 0.37 0.36 0.36 0.34 0.34 0.32 0.27 0.27 0.27 0.26 0.24 0.23 0.24 0.26 0.30 0.31 0.29 0.26 0.27 0.28 0.28 0.30 0.30 0.29 0.27 0.23 0.19 0.21 0.22 0.23 0.22 0.21 0.23 0.23 0.22 0.24 0.26 0.26 0.26 0.28 0.29 0.30 0.32 0.33 0.34 0.34 0.35 0.37
0.78 0.62 0.59 0.55 0.69 0.68 0.64 0.68 0.64 0.64 0.56 0.61 0.52 0.57 0.55 0.58 0.62 0.66 0.73 0.61 0.66 0.64 0.63 0.59 0.56 0.51 0.49 0.47 0.44 0.43 0.43 0.40 0.39 0.36 0.34 0.33 0.35 0.35 0.39 0.38 0.38 0.37 0.38 0.36 0.38 0.35 0.30 0.26 0.28 0.28 0.28 0.28 0.29 0.29 0.30 0.31 0.28 0.28 0.27 0.27 0.29 0.29 0.30 0.29 0.26 0.22 0.26 0.26 0.21 0.23 0.24 0.24 0.25 0.25 0.24 0.24 0.27 0.29 0.29 0.29 0.29 0.30 0.32 0.32 0.33 0.34 0.36 0.37
0.58 0.64 0.66 0.65 0.54 0.49 0.51 0.52 0.58 0.58 0.62 0.62 0.56 0.60 0.54 0.54 0.57 0.55 0.64 0.68 0.68 0.70 0.59 0.60 0.60 0.58 0.55 0.52 0.51 0.46 0.45 0.42 0.38 0.34 0.35 0.35 0.34 0.36 0.35 0.39 0.38 0.39 0.40 0.39 0.41 0.36 0.32 0.29 0.30 0.30 0.29 0.31 0.32 0.31 0.31 0.30 0.29 0.29 0.29 0.29 0.28 0.30 0.30 0.28 0.26 0.26 0.27 0.25 0.21 0.23 0.27 0.27 0.27 0.27 0.25 0.26 0.28 0.28 0.28 0.29 0.30 0.31 0.32 0.33 0.34 0.35 0.35 0.36
0.73 0.72 0.68 0.73 0.56 0.57 0.54 0.50 0.51 0.51 0.53 0.56 0.55 0.55 0.51 0.51 0.50 0.54 0.55 0.57 0.62 0.62 0.63 0.51 0.54 0.55 0.54 0.55 0.52 0.47 0.47 0.40 0.39 0.43 0.41 0.40 0.40 0.39 0.36 0.37 0.39 0.42 0.41 0.40 0.40 0.41 0.36 0.33 0.35 0.35 0.33 0.34 0.34 0.33 0.33 0.30 0.30 0.30 0.29 0.30 0.31 0.31 0.30 0.29 0.28 0.28 0.28 0.26 0.27 0.27 0.28 0.28 0.27 0.25 0.26 0.27 0.29 0.29 0.30 0.31 0.31 0.31 0.32 0.34 0.35 0.35 0.35 0.37
0.58 0.60 0.59 0.65 0.62 0.61 0.58 0.57 0.55 0.53 0.48 0.52 0.47 0.49 0.50 0.48 0.46 0.51 0.57 0.57 0.52 0.55 0.62 0.54 0.52 0.53 0.52 0.53 0.52 0.48 0.49 0.50 0.48 0.43 0.47 0.47 0.44 0.43 0.39 0.38 0.37 0.43 0.43 0.41 0.42 0.47 0.39 0.34 0.37 0.36 0.34 0.34 0.36 0.37 0.36 0.34 0.33 0.31 0.32 0.33 0.33 0.31 0.30 0.31 0.30 0.29 0.29 0.30 0.30 0.30 0.30 0.28 0.28 0.28 0.29 0.31 0.31 0.31 0.32 0.31 0.31 0.31 0.32 0.34 0.36 0.36 0.37 0.37
0.70 0.74 0.73 0.62 0.54 0.58 0.59 0.56 0.52 0.50 0.46 0.49 0.47 0.48 0.50 0.49 0.47 0.50 0.50 0.57 0.53 0.50 0.53 0.49 0.51 0.50 0.52 0.52 0.52 0.52 0.54 0.53 0.54 0.52 0.52 0.51 0.43 0.47 0.44 0.45 0.48 0.43 0.45 0.45 0.46 0.46 0.44 0.38 0.42 0.39 0.34 0.34 0.36 0.36 0.36 0.36 0.34 0.32 0.32 0.33 0.30 0.29 0.29 0.31 0.29 0.30 0.30 0.29 0.29 0.29 0.28 0.26 0.27 0.30 0.32 0.32 0.31 0.31 0.31 0.31 0.32 0.32 0.34 0.36 0.37 0.36 0.37 0.38
0.71 0.77 0.78 0.67 0.51 0.57 0.54 0.57 0.55 0.52 0.45 0.49 0.48 0.47 0.47 0.47 0.49 0.51 0.48 0.56 0.58 0.58 0.55 0.53 0.53 0.51 0.50 0.50 0.49 0.51 0.52 0.53 0.54 0.57 0.58 0.58 0.58 0.56 0.56 0.55 0.56 0.52 0.50 0.49 0.52 0.46 0.45 0.43 0.39 0.38 0.33 0.33 0.36 0.38 0.37 0.37 0.35 0.31 0.31 0.29 0.30 0.33 0.35 0.32 0.32 0.33 0.32 0.31 0.29 0.26 0.25 0.29 0.31 0.32 0.32 0.31 0.32 0.33 0.33 0.33 0.33 0.33 0.34 0.37 0.37 0.37 0.38 0.39
Wind_Speed
9 9 10 10 10 10 10 10 10 10 10 10 9 9 9 9 10 10 9 9 8 8 8 7 7 7 6 6 6 6 6 6 6 5 4 4 4 4 5 6 6 6 6 7 6 6 6 7 6 6 5 6 7 7 7 7 7 7 7 7 8 7 7 7 7 7 9 9 7 7 8 9 9 8 9 10 11 11 11 12 13 13 14 13 12 12 12 11
11 11 11 11 11 11 11 11 11 11 11 11 11 11 11 11 11 11 11 10 10 9 9 8 8 8 8 8 7 7 7 7 7 7 6 5 5 5 6 6 6 6 6 7 6 6 7 7 7 6 6 7 7 7 7 8 8 7 7 8 8 8 8 8 8 8 9 9 8 8 9 10 10 8 9 11 11 11 12 13 13 14 15 14 14 13 12 12
13 13 12 12 12 12 12 12 12 12 12 12 12 12 12 12 12 12 12 11 11 11 10 10 10 9 9 9 9 9 8 9 9 8 7 6 6 6 6 7 7 6 7 7 7 7 8 8 7 6 7 8 8 8 8 8 8 8 8 10 9 9 9 9 9 9 10 10 9 9 9 10 10 9 9 11 12 11 13 13 11 13 15 15 14 14 13 13
14 14 14 14 14 14 14 14 14 14 14 14 14 14 14 13 13 13 13 13 12 12 12 12 11 11 11 10 10 10 10 10 10 9 7 8 8 8 8 8 8 7 7 8 8 8 9 8 7 7 8 9 9 9 9 9 9 9 9 10 9 9 10 10 10 10 10 11 11 10 9 10 11 10 10 11 13 13 13 14 13 15 16 14 14 14 14 14
16 16 16 16 16 15 15 15 15 15 15 15 15 15 15 15 15 15 14 14 14 14 13 13 13 12 12 11 11 11 10 10 10 9 9 9 9 9 9 9 8 8 8 9 9 9 9 9 8 8 9 9 9 10 10 10 10 10 10 11 10 10 11 10 10 11 10 11 11 10 11 11 11 11 13 12 14 14 13 13 15 16 16 14 14 14 15 15
18 18 18 18 17 17 17 17 17 17 17 16 16 16 16 16 16 16 16 16 15 15 15 14 14 13 13 12 12 12 12 11 10 10 10 10 10 10 10 10 9 9 10 10 10 10 11 11 10 10 10 10 10 11 11 10 11 12 11 11 11 11 12 11 11 11 11 11 11 12 12 12 12 13 14 14 16 15 13 13 15 16 16 14 14 15 15 16
19 19 19 19 19 19 19 19 19 19 18 18 18 18 18 17 17 17 17 17 17 16 16 15 15 14 14 13 13 13 14 14 12 11 12 12 12 11 11 11 11 11 11 12 12 12 13 12 12 12 12 12 12 12 12 12 12 13 13 12 12 13 13 13 12 13 12 13 13 12 13 13 14 15 14 15 18 18 16 15 16 16 16 15 15 16 17 18
20 20 20 20 20 20 20 20 20 20 20 20 20 19 19 19 19 19 19 19 18 18 17 16 16 15 15 14 14 14 15 16 14 14 14 13 13 12 12 12 12 12 12 13 13 13 14 14 13 13 13 13 13 13 13 13 13 13 14 13 13 14 15 15 14 15 14 15 14 14 15 15 16 16 16 19 21 20 19 18 17 18 17 17 17 17 18 19
21 21 21 21 21 21 21 21 21 22 22 21 21 21 21 21 20 20 20 20 20 19 19 18 17 17 16 15 15 16 16 16 15 15 15 14 14 13 14 14 14 13 13 14 14 15 15 15 15 15 15 15 14 14 14 15 14 14 14 14 14 15 15 16 16 16 16 16 15 15 18 17 16 17 19 20 20 19 19 18 18 18 19 19 20 19 19 20
22 22 22 22 22 22 22 22 22 23 22 22 22 22 22 22 22 21 21 21 21 21 20 19 18 18 17 17 16 17 17 16 15 16 16 15 15 15 15 15 15 15 15 15 16 16 16 16 16 16 17 15 15 15 15 16 16 15 15 16 17 17 17 16 16 16 16 17 16 17 19 18 16 17 17 16 15 16 16 17 18 18 20 21 21 21 21 21
23 23 23 23 23 23 23 23 23 23 24 24 23 23 23 23 23 22 22 22 22 21 20 20 19 19 18 18 18 18 17 17 16 16 16 16 17 16 16 16 16 16 16 16 17 17 17 17 16 17 17 16 16 17 17 17 17 16 17 18 18 18 18 17 17 17 17 18 17 18 20 19 16 17 19 17 16 17 17 18 19 20 21 21 22 22 22 23
24 24 24 24 24 24 24 24 24 24 25 25 25 25 25 25 24 24 24 24 23 21 21 20 20 20 19 19 20 20 19 18 18 17 17 18 18 18 18 18 18 17 18 17 17 18 18 17 17 18 18 18 18 18 18 17 18 18 18 19 19 19 19 17 17 17 17 18 17 17 19 19 16 19 22 20 18 19 20 21 21 21 22 22 22 22 23 23
25 25 25 25 25 25 25 25 25 25 26 26 26 26 26 26 26 25 25 25 23 22 21 21 21 21 20 21 21 21 20 19 19 18 18 19 19 19 18 18 18 18 19 18 18 18 18 18 18 19 18 19 19 19 18 18 19 19 19 20 20 20 20 17 16 17 17 18 17 18 20 19 17 21 23 20 20 20 21 22 22 23 23 24 24 24 24 24
27 27 27 26 26 26 26 26 26 26 27 27 27 27 28 27 27 27 27 25 24 23 22 22 21 21 22 22 21 21 21 21 21 20 20 20 19 19 19 19 19 19 19 18 18 18 19 19 19 19 19 19 19 19 19 19 20 20 20 20 20 20 19 17 18 18 18 19 18 19 22 21 19 21 21 20 21 22 22 23 24 25 25 25 25 25 26 25
28 28 28 28 27 27 27 27 27 27 28 28 28 29 29 28 28 28 27 25 24 24 24 23 23 22 23 23 22 22 22 22 22 22 21 21 20 20 20 20 19 19 19 19 19 19 19 20 20 19 19 20 19 20 21 21 20 21 21 21 20 21 21 19 19 20 20 20 20 21 23 24 22 20 20 22 23 23 25 25 25 26 26 26 27 27 27 27
28 28 29 28 28 28 29 29 29 29 29 29 29 30 30 29 29 28 27 26 25 25 25 24 24 24 24 23 22 22 23 23 22 22 22 22 22 21 20 20 20 20 20 20 20 20 20 20 20 21 20 21 21 21 22 23 22 21 22 22 21 22 22 21 21 22 23 21 22 24 25 26 24 20 20 22 23 24 26 27 28 29 28 28 28 28 28 28
30 29 29 29 29 29 30 30 30 30 30 30 30 31 31 30 29 28 27 26 26 26 26 25 24 25 25 23 23 23 23 23 22 22 22 22 22 21 21 21 21 21 20 21 21 21 21 21 21 21 21 21 22 22 23 24 23 21 21 23 23 23 24 24 23 22 23 24 25 26 28 30 28 25 24 24 25 26 27 29 30 30 29 29 29 29 29 29
31 31 31 30 30 30 30 30 30 31 31 31 31 31 31 30 29 28 27 26 26 25 26 25 24 25 25 24 23 23 22 22 22 22 22 22 22 22 22 22 22 22 21 22 22 22 22 22 22 22 22 22 22 22 24 24 23 23 23 24 25 24 25 25 25 24 24 26 27 28 30 32 32 30 29 28 26 27 29 30 31 31 29 28 29 30 29 28
31 31 31 31 31 31 31 31 31 31 31 31 32 31 30 29 28 28 27 26 26 25 25 25 25 25 24 23 23 22 22 22 22 22 22 22 22 23 23 23 23 23 22 23 23 22 23 23 23 23 24 24 23 23 25 25 24 24 24 25 26 26 27 26 25 24 26 28 30 31 33 34 33 31 31 31 28 27 30 30 31 30 28 27 29 29 28 28
32 32 32 32 32 31 31 31 31 32 32 31 31 30 29 28 28 27 27 27 28 27 27 27 27 28 28 26 25 24 24 24 23 23 23 23 23 23 23 23 23 24 23 24 24 23 24 25 25 26 26 24 23 24 25 24 23 24 24 25 27 28 28 27 25 24 26 30 32 32 34 35 35 33 32 33 30 29 30 30 30 29 27 28 29 28 27 28
32 32 32 32 32 32 31 31 31 32 32 31 30 30 29 27 28 28 29 30 30 29 30 29 29 31 30 29 28 27 27 26 26 25 25 24 23 23 24 23 23 24 24 23 24 24 25 27 27 27 25 23 22 23 23 23 23 24 25 26 27 28 29 28 25 25 26 29 32 32 35 36 35 35 34 33 31 30 30 28 28 28 26 27 28 26 26 28
33 33 33 33 33 32 32 32 32 31 31 30 30 30 29 29 30 30 30 32 32 31 31 31 31 32 31 30 31 30 28 28 27 26 25 24 24 25 24 23 24 24 23 23 24 25 26 28 28 23 21 20 20 21 22 23 24 24 25 26 27 27 28 28 26 25 26 29 32 33 36 37 36 35 35 33 29 27 28 27 27 27 26 27 26 24 25 25
34 34 33 33 33 33 32 32 32 31 30 29 29 29 29 30 30 31 31 33 33 32 32 33 33 33 32 31 31 31 30 29 28 27 26 25 25 25 25 24 25 24 23 25 26 26 27 27 25 20 19 20 21 21 22 23 24 25 25 26 28 26 26 29 27 26 27 30 33 34 37 37 35 34 33 28 25 25 27 28 27 27 27 27 24 22 23 24
34 34 34 33 33 33 33 33 32 30 30 29 29 29 29 30 30 31 32 34 35 33 33 33 33 34 33 31 31 31 31 30 28 27 26 27 26 25 27 26 25 26 26 26 27 28 28 25 22 20 20 22 22 22 23 25 26 26 26 27 29 27 27 29 28 28 30 29 31 33 36 36 31 29 26 22 22 25 27 27 27 27 27 26 23 22 23 24
34 34 34 34 34 33 33 33 31 30 30 30 29 29 29 29 30 30 32 34 36 34 33 34 33 34 32 31 31 30 30 30 29 27 27 28 27 26 27 26 27 29 27 25 27 30 29 24 21 21 22 23 24 24 24 25 27 28 27 28 29 29 29 29 27 28 30 28 27 29 32 31 26 24 24 23 25 26 24 24 26 27 25 23 22 22 23 24
34 33 33 33 33 33 33 32 31 31 30 29 29 29 29 30 29 30 32 34 37 34 32 32 32 31 30 30 29 28 29 30 29 28 28 28 28 28 28 27 28 29 26 25 27 28 26 22 22 23 23 23 25 26 24 24 28 28 26 26 28 29 28 28 27 27 28 27 27 26 28 31 27 24 26 27 28 27 24 24 25 26 25 22 22 22 22 24
33 33 32 32 32 32 32 31 32 32 30 30 30 30 30 29 29 29 30 33 35 32 29 30 29 29 28 28 27 27 29 29 27 28 28 28 29 29 30 29 27 28 26 26 27 26 23 22 23 23 24 24 26 26 24 23 27 28 25 24 25 26 27 27 26 27 29 29 30 27 28 33 33 29 30 30 28 27 27 27 26 26 25 24 23 22 22 23
33 33 32 32 32 32 31 32 33 32 30 30 30 30 30 29 29 28 28 30 31 27 26 26 25 25 25 25 25 26 27 27 26 26 26 27 28 27 29 29 27 27 27 27 29 27 24 24 24 24 25 26 26 25 23 23 26 27 26 25 24 24 25 26 27 28 30 30 30 28 26 31 34 31 30 29 27 27 27 27 27 27 26 24 23 23 23 23
34 33 32 32 32 31 31 32 32 31 31 30 29 29 29 28 29 27 27 30 29 27 27 26 25 25 24 24 26 26 26 27 27 26 25 26 27 27 28 28 26 27 27 29 30 27 26 26 26 25 26 26 25 24 25 26 27 26 25 25 24 25 25 26 28 29 29 29 29 27 25 28 32 29 25 24 25 26 26 27 27 26 24 23 23 23 22 23
35 34 33 33 32 32 32 31 31 31 31 31 30 30 29 29 29 27 30 32 30 27 27 26 27 26 25 26 28 28 28 28 27 26 26 27 27 27 28 27 26 27 27 29 30 28 27 27 28 27 27 26 24 25 26 27 26 25 26 26 26 26 26 27 28 27 28 29 28 28 27 28 30 26 22 23 24 24 26 27 26 24 23 23 23 22 22 22
37 36 35 34 33 32 32 32 32 31 31 31 30 29 29 29 29 30 32 32 30 29 29 28 28 27 27 28 28 28 28 29 28 28 27 27 28 28 28 27 27 27 28 30 31 29 28 29 29 28 27 25 25 26 27 27 27 27 27 27 27 27 26 26 26 24 27 28 26 26 27 28 30 27 24 25 25 26 28 26 24 24 25 25 23 22 22 21
38 37 37 36 34 34 33 33 32 31 31 31 29 29 29 30 32 35 34 31 29 29 29 28 28 28 27 27 28 27 28 29 28 29 29 28 29 30 30 29 28 27 29 30 30 29 30 30 29 28 27 27 26 27 27 28 28 28 27 26 26 26 25 25 25 24 27 29 26 26 26 28 34 33 31 30 29 29 28 25 25 27 26 25 23 21 21 21
40 39 38 38 36 35 34 33 32 32 32 30 30 30 29 31 35 36 34 33 30 29 28 27 28 28 27 28 29 27 28 29 28 28 29 29 31 32 32 31 30 29 29 29 29 29 30 30 28 28 29 28 28 28 29 29 29 29 28 26 25 24 24 26 26 26 27 29 27 26 26 29 33 34 33 33 30 27 27 28 29 29 27 24 22 21 21 22
43 42 41 40 39 37 35 34 32 32 31 31 31 30 31 36 37 34 34 35 33 31 31 30 29 29 30 30 30 28 28 29 27 28 29 30 32 33 33 32 31 30 29 29 30 29 30 31 30 29 28 28 30 30 28 27 28 29 27 27 27 26 25 27 28 27 28 30 29 26 26 29 30 30 30 30 31 30 31 32 31 29 26 23 21 21 22 23
45 44 43 42 41 40 37 35 34 33 32 32 31 31 35 40 38 36 37 36 34 33 33 32 31 31 32 32 31 30 30 30 28 28 30 31 32 33 32 32 31 30 29 29 30 29 31 34 31 29 29 29 29 29 27 26 28 29 27 27 29 29 28 28 29 29 29 31 31 27 29 34 32 33 33 32 33 32 30 30 29 27 26 23 22 23 23 24
46 45 45 44 43 42 39 37 35 35 35 34 33 35 40 43 39 37 38 36 34 34 32 33 33 33 34 34 32 32 31 31 30 30 32 33 34 34 33 32 30 30 30 30 30 29 31 33 31 30 31 30 29 29 29 29 28 27 28 29 29 29 28 29 29 29 27 30 32 30 33 37 35 35 34 31 31 29 27 29 28 26 26 25 25 26 25 26
46 46 46 45 44 42 41 39 36 36 36 36 37 40 42 42 40 39 38 36 35 33 32 34 34 34 34 34 34 32 31 32 32 32 33 32 34 35 34 33 32 32 33 32 31 32 32 33 32 31 31 30 30 29 29 31 29 28 29 30 28 28 28 28 27 27 27 30 32 33 36 38 36 33 31 28 29 29 28 28 27 26 27 26 28 29 29 28
46 46 47 47 45 43 41 40 38 37 37 36 39 42 41 40 39 38 37 37 36 35 35 37 36 34 35 35 35 32 31 33 33 33 34 34 35 35 33 33 33 33 35 33 33 33 32 33 34 34 32 31 31 31 30 31 31 30 31 30 29 28 27 26 26 27 29 29 31 35 39 40 37 34 32 30 30 30 29 28 27 28 28 28 30 32 32 31
44 44 46 46 45 43 42 41 39 38 38 39 42 44 42 41 41 40 39 38 37 37 38 39 38 36 37 37 35 33 33 34 33 34 35 35 36 36 33 33 33 33 35 33 33 33 32 32 33 33 33 31 31 33 33 32 31 31 32 31 31 31 28 28 27 27 28 29 31 35 38 38 36 33 32 31 30 30 29 29 29 29 29 30 32 34 33 32
42 41 42 43 43 43 41 40 39 39 41 42 44 44 42 42 42 42 43 41 39 39 40 40 39 38 38 37 36 35 35 36 35 36 37 36 37 37 35 34 33 33 33 31 32 32 31 33 33 33 33 32 33 35 35 34 32 32 33 32 32 32 30 29 30 29 29 29 30 32 35 39 36 31 30 29 28 30 30 30 31 30 31 32 33 34 34 33
40 39 39 39 40 40 39 39 40 41 42 43 45 45 44 43 42 41 42 43 42 41 40 40 40 40 40 38 38 36 36 37 38 38 38 38 38 37 36 35 33 31 30 31 32 32 31 33 34 34 34 36 37 36 35 35 34 33 35 34 34 33 30 29 30 31 30 31 32 32 35 40 38 32 31 31 31 33 32 33 34 33 33 35 35 35 35 35
40 40 38 37 37 37 37 38 40 41 43 44 44 44 43 43 42 42 42 42 42 41 40 40 41 41 41 41 40 38 37 39 39 39 39 39 39 38 36 36 34 31 31 32 34 34 32 32 34 36 36 37 36 35 35 36 35 34 35 34 34 33 32 31 31 31 31 33 37 36 36 41 39 35 35 36 35 36 35 35 35 34 35 36 36 37 37 37
43 43 42 42 43 42 39 40 41 42 45 46 45 44 43 43 42 42 42 42 42 41 41 41 41 42 42 41 40 39 39 40 41 41 40 40 41 40 38 36 34 33 33 34 34 33 31 31 33 35 36 36 35 35 36 37 35 35 36 36 34 35 36 35 34 33 31 34 37 35 35 41 41 37 38 38 37 37 36 35 35 34 35 37 37 38 38 38
46 46 46 48 50 49 46 45 45 46 47 46 47 48 46 45 44 44 43 42 42 41 42 43 43 42 42 41 41 41 41 41 42 42 41 41 41 40 38 36 35 36 36 35 34 32 32 33 33 33 34 35 36 36 37 37 37 36 37 37 36 37 37 35 35 34 35 40 42 36 36 43 42 38 39 38 37 39 37 35 36 36 37 38 38 38 38 38
46 45 45 47 52 53 52 50 48 49 50 49 50 50 48 47 47 47 45 44 43 43 42 43 42 42 42 42 43 44 43 43 44 42 41 42 41 39 39 39 38 39 39 38 36 34 34 35 35 34 34 34 36 37 34 34 36 37 37 37 37 38 37 36 36 36 39 44 43 38 41 47 44 42 42 40 39 40 37 35 37 39 39 39 39 39 40 40
45 44 43 44 49 53 53 52 50 50 51 50 50 49 49 49 47 46 46 46 46 46 43 42 40 40 40 41 42 44 45 45 44 42 41 41 40 39 39 40 40 41 40 39 38 36 36 38 39 41 42 41 43 43 38 33 34 36 37 37 37 38 39 37 38 40 41 40 40 43 47 49 46 46 48 45 42 41 39 37 38 40 40 40 40 41 41 41
48 48 47 46 47 50 51 52 52 51 50 50 48 47 49 49 47 45 46 47 48 47 44 43 42 41 40 40 41 43 43 43 42 43 44 43 41 40 40 40 41 41 40 39 39 38 38 40 42 45 47 47 47 49 46 41 39 39 38 38 38 39 39 40 43 46 43 37 40 46 49 47 45 47 50 48 44 42 42 42 42 42 41 40 41 42 43 44
51 50 51 51 50 50 52 55 55 55 53 51 50 50 51 50 49 47 47 47 47 46 44 45 46 45 45 44 43 42 41 40 41 42 44 44 43 41 41 40 41 41 39 38 38 38 40 42 43 45 47 47 48 50 50 48 45 43 41 41 41 41 42 45 49 49 44 42 45 48 47 46 45 47 49 47 43 42 44 44 45 44 42 41 42 44 45 46
53 52 51 53 53 53 54 56 56 56 57 55 53 54 54 55 55 53 49 47 47 47 46 47 48 48 49 48 46 44 41 40 42 42 42 42 41 40 40 41 40 39 38 38 38 37 39 41 43 44 47 48 48 50 51 50 48 47 46 44 43 45 46 46 48 48 47 48 51 50 48 47 46 47 48 45 44 45 45 46 47 47 46 46 46 48 49 48
54 52 50 50 53 53 54 55 54 54 56 56 55 56 56 58 59 56 53 51 50 49 48 51 52 51 50 49 47 47 45 44 46 44 41 40 39 36 37 38 38 37 37 38 38 38 40 42 43 43 45 46 47 49 49 48 47 47 45 44 46 49 47 45 46 47 46 48 49 48 48 48 47 47 47 46 47 48 47 48 48 49 50 49 48 49 50 50
56 56 53 51 51 51 52 54 54 54 55 55 56 57 57 59 59 57 57 57 57 54 52 54 56 53 51 50 48 49 49 48 49 48 46 44 41 39 39 39 39 38 38 39 40 39 40 41 41 41 42 43 44 46 46 46 44 42 41 44 47 47 44 44 46 45 44 45 47 46 46 47 47 46 46 47 48 47 46 46 47 49 49 47 47 48 49 49
56 57 56 54 52 51 52 52 53 54 54 55 56 57 57 58 58 57 57 57 59 60 58 57 56 53 52 51 52 53 53 53 53 53 51 49 47 45 45 44 43 42 40 40 39 38 38 38 38 38 39 42 43 44 43 41 39 39 41 44 46 44 44 46 47 46 45 44 45 45 46 48 48 47 47 47 46 46 46 46 48 50 49 47 47 48 48 48
Wind_Direction
281 284 288 292 295 298 300 302 303 304 305 306 308 308 310 312 315 318 320 321 321 317 313 310 304 296 295 297 298 302 308 313 316 311 312 326 332 340 348 350 350 352 355 356 357 357 352 348 346 343 337 336 335 335 336 337 332 320 315 309 306 307 308 309 300 301 310 311 304 292 283 284 294 294 293 297 290 287 290 283 280 281 280 281 283 284 278 264
277 280 283 286 289 292 295 297 298 300 301 303 304 305 306 307 308 310 312 311 311 310 306 303 300 292 288 288 289 292 295 301 302 293 294 307 310 319 330 334 337 340 343 343 343 341 336 334 335 335 333 333 333 331 328 329 326 319 317 309 304 308 310 310 304 300 303 308 308 297 288 287 295 299 292 293 291 286 287 286 283 283 280 276 277 276 271 264
274 277 279 281 284 287 288 291 293 294 297 298 300 302 304 304 305 305 306 305 303 303 299 297 296 291 286 282 282 284 288 294 293 284 282 288 295 306 313 318 323 326 330 333 334 330 330 331 328 325 325 327 329 327 324 324 319 317 316 307 307 311 308 304 299 297 297 303 306 301 294 289 293 299 294 292 293 288 285 288 287 282 277 274 274 272 268 263
273 274 276 278 280 282 284 286 288 289 291 293 295 298 300 300 301 302 302 302 299 297 294 292 292 289 285 281 278 278 283 290 286 277 275 277 287 296 300 306 310 312 318 324 327 327 329 329 324 319 318 321 324 319 317 320 317 313 311 309 315 313 306 303 298 297 297 299 300 302 299 292 293 295 292 294 295 292 287 283 281 280 279 277 276 273 267 263
273 274 275 276 277 279 281 282 284 286 287 289 290 292 295 297 297 298 299 299 298 295 291 288 288 287 284 280 276 274 278 285 282 273 271 273 282 288 292 297 299 302 309 313 318 320 322 322 316 314 314 316 317 313 311 314 313 307 305 310 313 306 304 306 303 299 297 298 298 298 298 297 299 292 286 288 289 294 296 288 282 283 285 281 277 275 269 264
273 274 275 276 277 277 278 280 281 283 284 286 287 288 291 292 293 294 296 296 296 294 289 284 284 284 281 278 274 271 271 280 281 272 271 273 278 282 285 291 292 295 301 304 309 311 315 315 306 305 311 313 309 308 311 308 306 303 302 304 302 298 300 303 303 300 296 293 293 295 298 300 298 292 287 282 280 287 294 292 290 290 288 284 279 276 271 266
274 275 275 276 277 277 278 278 279 280 282 283 284 286 287 289 290 291 292 294 293 292 288 283 282 281 278 275 272 270 269 275 276 271 272 273 274 278 282 286 287 290 293 297 302 303 308 310 304 302 306 309 304 303 308 304 300 299 299 299 297 294 292 296 299 297 294 290 291 296 298 295 291 294 296 284 279 282 285 288 291 292 290 286 282 277 273 270
274 275 276 276 276 277 277 278 279 279 280 281 282 284 285 287 288 288 290 291 291 290 286 282 280 278 275 272 271 271 269 271 271 269 272 271 271 274 277 282 285 287 289 293 297 298 301 305 303 301 301 305 301 299 303 301 296 294 297 298 297 293 289 292 293 293 292 289 291 293 291 290 290 297 297 286 282 283 282 285 288 289 288 285 282 279 276 274
274 275 276 276 277 277 277 278 279 279 280 281 281 283 284 285 286 286 287 288 288 287 284 281 279 275 273 271 271 271 270 270 269 269 270 269 269 271 275 280 281 282 286 291 294 294 296 298 299 298 298 301 298 297 298 297 296 294 297 297 293 292 291 291 290 289 290 289 290 289 288 290 293 298 295 286 286 288 284 284 286 287 285 283 282 280 278 277
273 275 276 276 277 277 277 277 278 279 279 280 281 281 283 284 285 285 286 287 287 284 281 279 277 274 271 270 269 271 271 269 268 269 269 268 268 270 274 278 280 280 284 289 290 292 293 292 296 296 296 296 294 295 295 295 298 297 296 295 291 291 291 290 289 288 289 289 287 286 289 293 296 296 293 293 294 293 287 285 286 286 283 282 282 281 280 278
272 274 275 276 276 277 277 277 277 278 278 279 280 281 282 284 284 284 285 285 285 282 278 277 276 271 270 269 266 268 270 269 269 269 268 267 268 270 273 276 278 279 282 286 287 290 291 289 292 295 294 293 291 292 292 293 296 295 295 294 289 290 289 286 287 288 289 289 287 287 289 291 295 291 287 290 293 291 289 287 286 285 284 283 282 282 281 280
271 272 274 275 275 277 277 277 277 277 277 278 279 280 281 282 282 282 283 284 282 279 276 275 274 270 269 268 265 267 269 268 269 269 268 269 269 270 272 274 277 279 281 284 285 287 289 287 288 292 292 290 290 291 290 291 293 292 293 292 289 290 288 284 288 289 288 290 289 290 290 286 285 284 284 286 289 290 289 287 285 284 284 284 282 282 282 281
271 271 272 273 274 275 276 277 277 277 277 278 279 280 280 281 281 281 281 281 279 276 275 274 272 269 269 269 267 268 267 266 267 268 269 269 269 270 271 273 276 278 280 282 283 285 286 286 287 291 291 289 290 291 288 290 290 288 289 290 290 290 288 286 290 290 288 291 290 289 290 288 282 281 285 290 289 289 288 286 285 284 284 283 282 281 281 280
271 271 272 273 274 274 275 275 276 277 277 278 279 280 280 280 280 280 280 279 276 273 273 272 270 268 268 268 269 268 265 265 267 268 269 268 268 270 271 273 275 277 280 280 282 284 285 286 287 288 289 289 290 289 287 288 287 287 288 287 288 288 288 287 288 287 287 291 291 287 286 290 291 286 288 293 290 288 287 285 284 284 284 283 282 281 280 279
271 271 272 272 273 274 274 275 275 276 276 277 279 279 280 280 280 280 278 276 274 271 271 271 269 268 268 268 269 268 265 265 266 267 269 268 267 270 270 272 274 276 278 279 280 283 284 284 284 286 288 289 288 287 287 286 285 287 286 285 285 286 287 286 285 285 288 290 288 284 284 288 294 293 292 293 291 288 287 286 285 284 283 282 282 281 280 280
270 271 272 272 273 273 274 275 275 275 275 276 278 278 279 279 279 278 276 274 272 270 269 269 267 267 269 269 268 267 266 265 266 266 267 268 268 269 269 270 273 275 277 278 280 282 283 284 285 286 286 286 286 286 286 284 284 285 283 283 284 283 286 287 285 287 289 289 285 282 284 289 293 295 293 291 290 288 288 288 287 284 282 281 281 281 280 279
270 271 272 273 273 274 274 275 275 276 276 277 277 277 278 278 276 275 274 272 271 269 269 268 266 266 268 268 268 267 267 266 266 267 267 269 269 267 268 271 273 275 276 277 278 280 281 283 285 284 285 287 286 284 283 282 283 284 283 283 283 282 285 286 286 287 287 286 285 282 283 286 289 292 292 289 288 287 287 288 287 285 283 281 280 280 279 277
270 271 272 273 273 274 275 275 275 276 277 277 277 277 277 276 274 273 272 270 270 269 268 267 265 266 267 266 266 267 267 267 266 266 267 269 269 268 270 272 273 274 275 276 277 279 281 283 284 284 284 284 283 280 279 281 283 283 282 282 283 282 281 283 285 286 285 285 285 283 282 284 287 289 290 289 287 285 286 287 287 286 283 281 280 279 277 275
269 270 271 272 273 274 274 275 275 276 277 277 277 277 275 274 273 271 270 268 268 267 268 265 262 265 268 266 265 267 268 267 266 266 266 268 269 270 272 273 273 273 274 275 276 278 280 281 282 283 281 279 278 276 276 280 283 282 282 282 283 282 281 283 286 285 285 285 284 283 283 285 287 289 290 291 288 285 285 287 286 286 284 282 280 278 276 274
269 270 270 271 272 273 274 275 275 276 277 275 276 276 273 273 272 270 269 268 266 267 268 265 263 265 267 267 265 265 266 266 267 268 267 268 269 270 271 273 274 273 274 276 276 279 280 279 279 280 279 279 277 274 277 283 283 281 282 281 281 282 283 286 287 286 286 286 284 284 284 285 287 289 290 290 289 287 286 286 286 286 284 282 280 278 275 275
269 269 270 271 272 273 273 275 276 277 276 274 274 274 272 271 271 271 271 269 267 268 267 265 265 266 265 265 264 264 266 267 267 267 267 267 267 269 270 271 273 273 275 278 278 279 278 277 278 279 280 282 280 276 278 282 281 280 280 281 281 281 284 287 288 286 286 286 286 286 286 285 286 289 289 289 289 288 288 287 288 287 285 282 280 278 276 276
268 268 269 270 271 272 273 274 276 276 276 273 272 272 271 271 271 272 272 270 268 267 267 266 266 266 265 264 263 264 265 266 267 265 264 265 265 268 271 270 272 275 277 276 276 277 276 276 279 282 283 284 284 281 279 279 280 280 281 282 282 284 287 288 288 288 287 286 288 289 288 287 287 287 287 287 288 289 289 289 290 288 286 284 282 279 276 275
267 268 268 269 270 271 272 274 275 275 274 273 273 272 271 272 273 273 272 272 270 267 266 265 264 264 264 263 263 261 261 263 265 263 262 262 264 268 269 269 272 276 275 272 272 274 275 278 281 282 279 278 283 282 280 282 281 279 280 280 281 285 288 286 288 290 286 285 289 291 290 288 288 287 286 286 288 291 292 292 291 287 285 285 284 280 275 272
266 267 268 268 269 270 272 274 273 272 272 272 272 271 272 272 273 273 273 273 271 267 265 264 264 263 263 263 261 259 260 262 263 264 261 260 263 267 268 269 271 273 273 270 270 271 274 279 280 279 277 276 280 280 278 280 281 278 278 278 280 284 283 283 290 291 287 285 288 293 292 289 288 288 287 288 291 294 295 295 293 289 286 285 283 279 274 272
266 267 267 267 268 269 272 272 270 271 272 271 270 271 272 271 273 275 275 274 272 269 266 264 263 262 261 263 261 260 263 263 263 264 262 260 262 267 270 270 269 271 272 270 271 272 274 277 275 276 279 277 277 279 278 279 280 279 277 276 279 283 283 284 290 292 290 287 289 296 297 292 289 286 286 290 293 296 297 297 296 294 290 285 281 277 273 273
266 267 268 267 267 270 271 269 268 270 270 269 270 270 271 271 273 275 275 274 272 270 268 264 262 261 260 262 262 261 264 264 264 264 263 263 263 266 269 269 270 273 272 270 271 274 276 277 276 275 277 276 277 279 279 278 279 280 281 280 279 281 284 284 287 288 288 289 289 295 296 292 288 281 284 292 294 295 297 297 296 294 291 286 281 278 276 274
267 268 268 268 268 270 269 267 268 269 267 267 269 269 270 271 272 275 276 275 271 270 268 265 263 262 261 262 260 260 264 266 265 263 262 264 264 265 267 267 269 271 271 270 270 273 275 275 276 276 275 275 277 280 279 276 277 281 285 286 281 281 282 282 284 283 286 290 289 287 289 288 285 281 285 290 291 293 295 295 296 294 290 286 282 280 278 275
268 267 268 268 269 269 268 267 268 267 266 267 268 268 269 269 271 274 274 272 271 270 268 265 264 264 263 262 258 261 267 268 267 264 263 263 264 265 266 267 268 268 268 267 268 273 275 272 271 271 273 275 277 282 280 272 276 283 285 285 283 282 282 281 283 284 288 291 286 284 286 286 285 284 288 291 288 291 293 293 295 295 291 286 283 282 279 276
267 267 268 268 269 269 268 267 267 266 265 265 266 266 267 267 270 272 270 268 269 271 270 266 264 265 266 264 261 264 269 269 268 266 265 264 263 267 268 268 268 268 268 268 268 273 275 273 272 271 272 276 279 285 282 275 278 282 282 284 285 284 283 283 284 285 288 286 282 283 283 284 287 286 288 292 290 289 292 294 295 295 293 288 286 285 280 278
266 266 266 267 269 269 268 267 266 265 264 262 263 264 264 265 267 267 264 264 267 271 271 269 267 267 266 266 267 267 267 268 268 266 266 265 264 267 269 268 268 268 268 269 269 271 273 274 275 273 274 278 279 283 284 281 280 278 278 281 282 282 283 283 284 285 285 283 281 280 276 277 286 288 287 291 291 289 293 297 296 295 294 291 289 285 281 280
264 264 264 265 267 268 267 266 264 264 262 260 261 262 263 265 265 261 260 265 269 269 269 269 272 272 269 270 271 269 267 267 265 263 265 265 263 265 266 266 266 267 267 268 269 270 270 270 272 273 274 277 278 280 282 282 279 277 277 279 281 282 282 282 281 281 281 284 286 285 279 273 276 284 290 291 293 292 293 294 294 295 295 292 289 285 282 282
263 262 262 263 265 266 266 266 264 262 260 259 259 259 262 264 261 257 260 268 270 267 268 271 273 274 273 274 273 270 269 267 264 263 264 265 264 263 264 264 264 266 267 267 269 271 269 269 271 273 274 273 274 276 278 278 276 275 273 274 278 280 281 280 280 280 279 283 287 289 286 277 274 280 285 286 289 291 291 292 294 297 296 291 287 285 283 282
262 261 261 262 263 264 265 266 263 259 258 257 257 260 262 261 260 258 259 263 266 269 272 274 275 275 274 273 272 271 270 269 266 265 265 265 265 264 265 266 265 267 269 268 271 271 272 273 269 269 273 271 268 271 273 274 272 270 268 268 270 275 279 279 280 282 281 283 285 284 284 282 282 285 283 280 283 286 288 290 292 295 294 290 286 284 284 282
261 260 260 261 261 262 263 264 261 258 257 255 256 259 258 257 260 261 260 261 266 271 273 274 275 275 273 272 272 270 269 269 267 265 265 264 264 264 263 263 263 266 269 268 270 270 271 273 268 267 272 268 264 269 274 275 271 268 270 269 268 269 273 278 281 282 285 287 285 280 280 282 287 291 288 283 283 285 286 287 288 292 292 291 289 286 284 282
260 259 259 259 259 259 259 260 258 257 255 254 256 257 254 255 260 263 263 264 267 268 270 272 272 271 271 271 272 271 270 270 268 266 264 262 263 264 264 263 260 263 265 265 269 270 270 272 271 272 274 268 267 272 274 273 270 269 271 268 268 270 271 275 280 281 285 288 283 276 277 281 285 289 289 289 289 288 287 286 288 290 288 288 289 286 284 283
260 259 258 258 258 257 256 256 255 255 254 255 255 254 255 258 261 263 264 265 265 266 267 269 269 267 268 269 269 270 270 270 269 267 265 264 265 265 266 267 262 259 261 264 268 269 270 273 273 275 275 272 273 274 272 271 268 268 268 266 270 275 272 272 277 280 281 281 280 279 280 283 286 286 285 287 289 289 288 288 290 289 286 286 287 285 284 283
260 258 258 257 256 255 253 254 254 253 254 255 254 255 259 261 261 261 263 265 265 266 265 265 265 264 266 268 268 267 267 267 266 265 266 267 268 265 265 268 265 258 259 263 267 268 269 273 272 272 274 273 275 275 272 272 269 266 268 269 273 276 273 273 277 280 277 276 280 281 282 285 286 286 287 288 286 286 288 290 292 290 288 289 287 285 284 283
259 259 259 257 255 253 252 252 252 251 253 255 254 256 260 261 260 260 260 262 265 265 263 264 265 264 265 267 269 267 265 264 264 265 266 267 268 267 265 267 266 260 259 261 266 268 269 271 272 272 273 273 273 271 269 270 270 269 271 272 272 271 270 270 273 277 275 275 280 281 282 284 282 282 286 285 283 284 287 291 294 291 291 290 287 285 284 283
257 259 260 257 253 251 250 251 251 251 252 253 254 257 259 261 262 261 258 260 264 264 262 264 265 266 266 266 269 268 264 264 264 265 267 266 268 268 266 267 267 264 261 259 262 267 267 268 271 273 273 272 269 266 264 265 268 270 270 269 269 270 270 269 269 273 275 274 278 281 282 284 283 283 284 281 280 283 286 291 293 291 290 288 285 286 285 282
255 258 261 256 251 249 248 249 250 250 252 254 256 259 261 262 262 261 259 259 262 262 262 263 264 265 265 266 268 268 266 267 266 266 267 266 268 269 267 268 270 269 266 262 263 267 266 265 268 271 271 269 266 264 265 265 264 263 263 263 264 266 269 271 270 270 272 274 275 277 278 281 285 287 286 283 283 284 287 289 290 291 289 285 284 285 284 281
254 257 259 253 248 245 245 248 250 252 255 256 258 259 260 261 262 262 260 259 260 261 262 262 262 262 264 265 267 267 267 267 266 266 267 266 267 269 267 266 269 270 268 266 265 265 264 264 264 266 267 267 267 269 270 269 265 263 262 261 262 263 264 268 269 267 268 269 270 273 275 279 282 285 287 288 288 288 288 288 289 289 285 283 284 283 282 281
253 256 255 248 243 241 244 251 254 255 256 256 258 260 260 260 261 260 259 259 260 262 262 262 261 262 263 263 265 266 266 266 265 265 266 266 265 268 267 264 265 266 267 267 266 265 267 266 263 264 266 268 271 273 272 271 268 266 266 264 264 264 260 261 266 268 267 267 269 272 274 277 281 283 286 288 288 289 288 288 289 288 283 284 286 284 282 281
253 256 254 247 242 242 248 255 256 255 257 257 259 261 260 259 260 259 259 258 259 261 261 261 261 261 262 263 264 264 264 265 265 264 267 268 266 267 267 264 264 266 268 269 268 268 267 264 262 265 268 269 269 270 271 271 267 264 265 265 264 263 261 263 266 269 269 267 269 272 273 276 281 284 285 288 289 289 288 287 287 285 284 286 286 285 283 281
254 256 255 250 244 244 249 255 255 255 258 259 259 259 259 259 259 259 258 258 259 261 261 261 261 261 262 262 263 263 263 264 265 264 266 267 268 268 265 261 260 264 267 267 267 265 264 262 261 265 267 267 267 268 268 268 265 265 267 266 263 263 263 266 267 268 269 267 266 270 272 275 281 284 285 287 289 288 288 288 287 285 285 286 285 285 283 281
255 256 255 250 246 247 251 255 256 257 257 258 258 258 258 258 257 257 257 258 259 261 262 262 261 261 262 262 263 263 262 263 265 266 265 267 269 270 266 260 258 262 265 265 264 263 263 262 259 259 260 261 263 266 268 267 264 265 267 265 263 262 260 263 265 264 267 267 266 268 272 276 281 284 283 284 286 287 287 287 286 285 285 285 285 284 283 282
254 254 254 251 249 250 254 256 256 256 256 257 258 257 256 256 258 257 257 257 258 259 261 262 261 261 262 262 263 264 263 262 264 265 266 267 269 270 268 263 260 262 265 265 263 263 264 262 257 255 257 258 261 265 268 269 265 264 266 264 263 262 260 261 262 262 265 270 268 267 271 276 280 282 282 282 284 285 285 285 284 282 282 282 282 283 283 282
253 253 252 252 252 252 254 256 256 256 256 255 255 255 254 255 257 257 255 256 257 256 257 259 258 258 260 261 263 264 264 264 263 263 265 266 267 268 268 266 265 265 266 266 264 263 264 262 257 256 258 259 262 264 265 265 264 263 265 264 263 263 261 259 260 262 267 272 271 270 272 276 278 281 282 283 284 284 284 284 284 283 283 282 281 281 282 281
253 254 252 251 253 253 253 254 255 256 256 255 254 255 254 254 255 255 255 256 256 254 254 256 255 255 258 260 262 264 264 265 265 264 265 266 266 267 267 267 267 267 266 266 264 262 262 261 259 259 261 261 262 264 265 264 263 263 263 264 263 263 261 259 262 266 266 267 269 272 274 275 278 280 281 283 285 284 284 285 284 284 284 282 281 281 281 281
254 256 255 252 254 254 253 252 254 254 254 255 255 255 254 253 253 254 256 257 256 252 252 254 255 255 258 260 261 261 261 262 264 264 265 266 265 266 267 266 266 267 266 264 264 263 262 261 262 263 264 264 263 265 265 265 264 264 264 264 265 264 263 263 266 268 266 265 270 273 273 273 277 279 281 284 287 285 285 285 285 285 284 283 283 283 283 283
254 256 256 255 256 256 254 253 253 254 254 254 254 254 254 254 254 254 255 254 254 254 253 254 256 258 259 259 259 258 258 260 262 263 263 264 263 264 266 265 266 267 265 264 264 263 262 263 264 265 266 266 264 264 264 263 264 264 264 264 265 265 264 264 267 268 267 269 272 272 272 274 278 280 283 286 287 286 285 285 285 285 284 284 284 284 284 285
255 256 257 257 257 257 256 255 254 254 254 253 253 254 254 254 254 255 255 253 253 255 254 255 258 260 260 258 257 257 259 260 261 261 262 263 262 263 265 266 266 265 264 263 264 263 262 264 264 264 265 264 263 263 263 263 263 263 262 263 263 264 265 264 266 267 268 271 273 272 271 274 279 283 284 284 284 284 284 285 285 285 285 285 285 284 284 285
256 257 256 256 256 254 255 256 254 253 254 254 254 254 255 255 255 256 257 256 254 255 256 257 258 260 259 257 256 257 259 260 261 261 262 263 263 264 264 264 263 262 262 263 263 262 261 262 262 261 262 264 263 262 264 264 262 258 258 260 262 263 265 265 266 267 267 269 271 272 273 277 281 283 283 283 283 283 284 285 286 286 286 286 285 285 286 286